[[{"header":{"parameterUnit":"m.s-1","parameterCategory":2,"la1":30.2992,"la2":30.254,"lo1":-89.0895,"lo2":-89.0443,"dy":0.0025,"dx":0.0025,"nx":19,"ny":19,"refTime":"2026-04-12T03:00:00:Z","depth":"0","parameterNumber":2,"parameterNumberName":"U-component_of_CURRENTS"},"data":[0,0,0,0.1658,0.1659,0.172,0.1721,0.178,0.178,0,0,0,0,0,0,0,0,0,0,0,0.1634,0.1634,0.1658,0.1659,0.172,0.1721,0.178,0.178,0,0,0,0,0,0,0,0,0,0,0,0.1634,0.1634,0.1635,0.166,0.172,0.1721,0.178,0.1738,0,0,0,0,0,0,0,0,0,0,0.1681,0.1663,0.1634,0.1635,0.166,0.172,0.1721,0.1736,0.174,0.1747,0,0.1758,0,0.1773,0.1784,0.1784,0,0,0,0.1658,0.1659,0.1676,0.1635,0.1661,0.172,0.1692,0.1739,0.1744,0.1753,0.1759,0.1762,0.1774,0.1784,0.1785,0.1881,0.1882,0,0,0.1654,0.1645,0.1672,0.1679,0.1678,0.169,0.1694,0.1742,0.1747,0.1759,0.1763,0.1775,0.1785,0.1785,0.1881,0.1882,0,0,0,0.1646,0.1642,0.1658,0.1676,0.169,0.1692,0.1697,0.1745,0.175,0.1764,0.1775,0.1785,0.1786,0.188,0.1881,0.189,0,0,0,0.1644,0.1638,0.1657,0.1652,0.1689,0.1722,0.1699,0.1747,0.1753,0.1775,0.1785,0.1786,0.1879,0.1881,0.1888,0.1908,0,0,0,0.1631,0.1637,0.1644,0.1651,0.1679,0.1721,0.1729,0.1749,0.176,0.1784,0.1786,0.1879,0.188,0.1887,0.1905,0.1933,0,0,0,0.1618,0.1644,0.1644,0.1679,0.1678,0.1739,0.1729,0.1775,0.18,0.1785,0.1879,0.1881,0.1886,0.1903,0.1931,0.189,0.1895,0,0,0.1646,0.1647,0.167,0.1671,0.1729,0.173,0.179,0.1814,0.1825,0.186,0.1863,0.1889,0.1905,0.1933,0.1979,0.1981,0,0,0,0.1676,0.1688,0.1708,0.1738,0.1776,0.1811,0.1835,0.1848,0.1887,0.1847,0.1918,0.1929,0.1945,0.1917,0.192,0.1898,0.1888,0.1888,0.1888,0.1689,0.1712,0.1747,0.1781,0.182,0.1871,0.1903,0.1928,0.1923,0.1948,0.1957,0.2015,0.1986,0.1988,0.1966,0.1973,0.1973,0.1973,0.1973,0.1715,0.1723,0.176,0.1796,0.1839,0.1883,0.1956,0.1967,0.2021,0.2002,0.2017,0.1954,0.1991,0.1967,0.1974,0.1974,0.1973,0.1973,0.1973,0.17,0.1704,0.1725,0.1767,0.1815,0.1878,0.1931,0.1991,0.2041,0.2068,0.204,0.2039,0.2,0.207,0.2071,0.2071,0.2071,0.2071,0.2071,0.166,0.1685,0.169,0.1736,0.1752,0.1806,0.1916,0.1966,0.2043,0.207,0.2069,0.2026,0.2046,0.2021,0.2075,0.2074,0.2074,0.2073,0.2073,0.1633,0.1636,0.1643,0.1652,0.1684,0.1685,0.1815,0.1916,0.1995,0.2026,0.204,0.207,0.2067,0.2064,0.2041,0.2097,0.2097,0.2097,0.2097,0.1599,0.1609,0.1591,0.1586,0.1592,0.1628,0.1646,0.1766,0.1926,0.1981,0.2039,0.1994,0.1994,0.1985,0.1984,0.1959,0.1993,0.1993,0.1992,0.1578,0.1578,0.1547,0.1542,0.1537,0.154,0.1518,0.1575,0.1814,0.1988,0.2021,0.2026,0.1958,0.196,0.1942,0.1943,0.1901,0,0]},{"header":{"parameterUnit":"m.s-1","parameterCategory":2,"la1":30.2992,"la2":30.254,"lo1":-89.0895,"lo2":-89.0443,"dy":0.0025,"dx":0.0025,"nx":19,"ny":19,"refTime":"2026-04-12T03:00:00:Z","depth":"0","parameterNumber":3,"parameterNumberName":"V-component_of_CURRENTS"},"data":[0,0,0,0.0164,0.0164,0.0158,0.0157,0.0084,0.0083,0,0,0,0,0,0,0,0,0,0,0,0.0165,0.0165,0.0164,0.0164,0.0158,0.0157,0.0084,0.0083,0,0,0,0,0,0,0,0,0,0,0,0.0165,0.0165,0.0165,0.0164,0.0158,0.0157,0.0085,0.0105,0,0,0,0,0,0,0,0,0,0,0.0119,0.0134,0.0165,0.0165,0.0164,0.0158,0.0157,0.0106,0.0103,0.007,0,0.0073,0,0.0077,0.0077,0.0077,0,0,0,0.016,0.0137,0.0132,0.0165,0.0164,0.0158,0.0159,0.0105,0.0102,0.0066,0.0072,0.0069,0.0076,0.0077,0.0076,0.0023,0.0023,0,0,0.016,0.0164,0.0134,0.013,0.0165,0.016,0.0159,0.0104,0.0101,0.0072,0.0068,0.0074,0.0076,0.0076,0.0022,0.0023,0,0,0,0.0164,0.0164,0.0162,0.0132,0.0137,0.0159,0.0159,0.0104,0.0103,0.0067,0.0073,0.0076,0.0075,0.0022,0.0022,0.0131,0,0,0,0.0164,0.0167,0.0162,0.0164,0.0138,0.013,0.0161,0.0107,0.0101,0.0074,0.0076,0.0074,0.0022,0.0022,0.0128,0.0183,0,0,0,0.0165,0.0167,0.0167,0.0164,0.0163,0.0132,0.0127,0.0106,0.0104,0.0077,0.0074,0.0022,0.0022,0.0125,0.0177,0.0245,0,0,0,0.0168,0.0186,0.0167,0.0189,0.0164,0.0174,0.0128,0.0125,0.0108,0.0075,0.0022,0.0022,0.0124,0.0174,0.0241,0.0328,0.0353,0,0,0.0196,0.0189,0.0204,0.0187,0.0217,0.0175,0.0202,0.0156,0.0096,0.0035,0.0034,0.0129,0.0177,0.0244,0.0339,0.0364,0,0,0,0.0217,0.0229,0.0234,0.0245,0.0239,0.0248,0.0203,0.0184,0.0145,0.0087,0.0102,0.0128,0.0168,0.0211,0.0231,0.0204,0.0023,0.0023,0.0023,0.0263,0.0266,0.0298,0.0302,0.0305,0.0293,0.03,0.0257,0.0188,0.0186,0.0197,0.0294,0.034,0.0356,0.0326,0.0168,0.0169,0.0169,0.0169,0.0322,0.0347,0.0349,0.0378,0.0379,0.0393,0.0383,0.0357,0.0357,0.0274,0.0307,0.0298,0.0384,0.0344,0.0176,0.0175,0.0174,0.0173,0.0173,0.036,0.0374,0.0385,0.0427,0.0467,0.0467,0.0544,0.0507,0.0457,0.0486,0.0512,0.0511,0.0495,0.0496,0.0497,0.0498,0.0498,0.0498,0.0499,0.0393,0.0408,0.0451,0.0488,0.0524,0.0591,0.0639,0.0676,0.0686,0.0639,0.0639,0.0526,0.0394,0.0403,0.0507,0.0506,0.0505,0.0504,0.0503,0.045,0.0451,0.0518,0.0556,0.0655,0.077,0.0812,0.0921,0.0929,0.0954,0.0788,0.072,0.0697,0.068,0.0694,0.0868,0.0868,0.0868,0.0868,0.0487,0.0494,0.059,0.0669,0.0774,0.086,0.1062,0.1133,0.1062,0.1004,0.0922,0.0858,0.0845,0.0824,0.0803,0.0816,0.1017,0.1017,0.1017,0.0533,0.0556,0.0637,0.0713,0.0828,0.0978,0.1176,0.1293,0.1156,0.1015,0.0872,0.0866,0.0756,0.0736,0.0682,0.0656,0.0668,0,0]}],[{"header":{"parameterUnit":"m.s-1","parameterCategory":2,"la1":30.2992,"la2":30.254,"lo1":-89.0895,"lo2":-89.0443,"dy":0.0025,"dx":0.0025,"nx":19,"ny":19,"refTime":"2026-04-12T03:00:00:Z","depth":"2","parameterNumber":2,"parameterNumberName":"U-component_of_CURRENTS"},"data":[0,0,0,0.1676,0.1678,0.1743,0.1744,0.181,0.181,0,0,0,0,0,0,0,0,0,0,0,0.165,0.1651,0.1676,0.1678,0.1743,0.1744,0.181,0.181,0,0,0,0,0,0,0,0,0,0,0,0.165,0.165,0.1651,0.1678,0.1743,0.1744,0.1809,0.1764,0,0,0,0,0,0,0,0,0,0,0.1702,0.1682,0.165,0.1651,0.1678,0.1743,0.1744,0.1762,0.1767,0.1775,0,0.1787,0,0.1803,0.1814,0.1815,0,0,0,0.1675,0.1678,0.1696,0.1651,0.1679,0.1743,0.1713,0.1765,0.177,0.1782,0.1788,0.1791,0.1804,0.1815,0.1815,0.1917,0.1918,0,0,0.1672,0.1662,0.1693,0.17,0.1698,0.1711,0.1715,0.1768,0.1774,0.1788,0.1793,0.1805,0.1815,0.1816,0.1917,0.1917,0,0,0,0.1663,0.1659,0.1677,0.1697,0.1712,0.1713,0.1718,0.1771,0.1778,0.1794,0.1806,0.1816,0.1816,0.1916,0.1917,0.1921,0,0,0,0.1661,0.1654,0.1675,0.1669,0.1711,0.1746,0.172,0.1774,0.1781,0.1805,0.1816,0.1817,0.1915,0.1916,0.192,0.1939,0,0,0,0.1647,0.1653,0.1661,0.1669,0.1699,0.1745,0.1754,0.1776,0.1788,0.1815,0.1817,0.1915,0.1916,0.1918,0.1936,0.1964,0,0,0,0.1633,0.166,0.1661,0.1698,0.1698,0.1761,0.1754,0.1801,0.1827,0.1816,0.1915,0.1917,0.1918,0.1934,0.1962,0.1912,0.1916,0,0,0.1661,0.1663,0.1686,0.1689,0.1748,0.1751,0.1813,0.184,0.1853,0.1894,0.1897,0.192,0.1936,0.1963,0.2001,0.2003,0,0,0,0.1692,0.1704,0.1725,0.1757,0.1797,0.1833,0.1859,0.1874,0.1916,0.1877,0.1951,0.1962,0.1978,0.1945,0.1947,0.1924,0.1924,0.1924,0.1924,0.1705,0.1729,0.1765,0.1799,0.184,0.1893,0.1926,0.1954,0.1951,0.1977,0.1987,0.2044,0.2009,0.201,0.2003,0.2003,0.2003,0.2003,0.2003,0.1731,0.174,0.1777,0.1815,0.1859,0.1905,0.198,0.1991,0.2048,0.2031,0.2045,0.1979,0.2012,0.2004,0.2004,0.2004,0.2004,0.2004,0.2004,0.1716,0.1721,0.1742,0.1785,0.1834,0.1899,0.1953,0.2013,0.2064,0.2091,0.2059,0.2058,0.2039,0.2093,0.2093,0.2094,0.2094,0.2094,0.2094,0.1677,0.1702,0.1708,0.1755,0.177,0.1825,0.1936,0.1986,0.206,0.2085,0.2085,0.2074,0.2072,0.2046,0.2097,0.2097,0.2096,0.2096,0.2096,0.165,0.1654,0.1661,0.167,0.1703,0.1705,0.1834,0.1931,0.2009,0.2037,0.2082,0.2081,0.2079,0.2077,0.2053,0.2104,0.2104,0.2104,0.2104,0.1616,0.1627,0.161,0.1605,0.1612,0.1649,0.1653,0.1711,0.1854,0.189,0.1898,0.184,0.1845,0.1827,0.1831,0.18,0.1784,0.1784,0.1783,0.1595,0.1595,0.1566,0.1563,0.1559,0.1563,0.1512,0.1452,0.1557,0.1764,0.1783,0.2094,0.203,0.203,0.202,0.2019,0.1977,0,0]},{"header":{"parameterUnit":"m.s-1","parameterCategory":2,"la1":30.2992,"la2":30.254,"lo1":-89.0895,"lo2":-89.0443,"dy":0.0025,"dx":0.0025,"nx":19,"ny":19,"refTime":"2026-04-12T03:00:00:Z","depth":"2","parameterNumber":3,"parameterNumberName":"V-component_of_CURRENTS"},"data":[0,0,0,0.0102,0.0102,0.01,0.01,0.0031,0.003,0,0,0,0,0,0,0,0,0,0,0,0.0101,0.0101,0.0102,0.0102,0.01,0.01,0.0031,0.003,0,0,0,0,0,0,0,0,0,0,0,0.0101,0.0101,0.0101,0.0102,0.01,0.01,0.0031,0.0048,0,0,0,0,0,0,0,0,0,0,0.0057,0.0072,0.0101,0.0101,0.0102,0.01,0.01,0.0049,0.0047,0.0014,0,0.0017,0,0.0023,0.0024,0.0024,0,0,0,0.0097,0.0074,0.007,0.0101,0.0102,0.01,0.01,0.0049,0.0045,0.001,0.0016,0.0014,0.0021,0.0024,0.0023,-0.0027,-0.0027,0,0,0.0097,0.01,0.0073,0.0069,0.0104,0.01,0.01,0.0047,0.0046,0.0016,0.0013,0.002,0.0023,0.0023,-0.0027,-0.0027,0,0,0,0.0101,0.0101,0.0099,0.0071,0.0077,0.01,0.01,0.0048,0.0047,0.0012,0.002,0.0023,0.0022,-0.0027,-0.0027,0.008,0,0,0,0.01,0.0103,0.0099,0.0101,0.0078,0.0073,0.0102,0.0051,0.0045,0.002,0.0023,0.0021,-0.0027,-0.0027,0.0077,0.0129,0,0,0,0.01,0.0103,0.0103,0.0101,0.0103,0.0074,0.007,0.005,0.0049,0.0024,0.0021,-0.0027,-0.0027,0.0074,0.0123,0.0186,0,0,0,0.0102,0.0121,0.0103,0.0127,0.0103,0.0117,0.0071,0.007,0.0055,0.0022,-0.0027,-0.0027,0.0073,0.012,0.0182,0.0239,0.0261,0,0,0.0131,0.0125,0.014,0.0125,0.0157,0.0116,0.0145,0.0102,0.0043,-0.0016,-0.0017,0.0078,0.0123,0.0185,0.0252,0.0274,0,0,0,0.0153,0.0166,0.0171,0.0185,0.018,0.019,0.0148,0.013,0.0093,0.0035,0.0052,0.0077,0.0113,0.0138,0.0155,-0.0026,-0.0026,-0.0026,-0.0026,0.0199,0.0203,0.0236,0.0242,0.0247,0.0237,0.0244,0.0203,0.0137,0.0135,0.0145,0.0239,0.0265,0.0279,0.0119,0.0119,0.0119,0.012,0.012,0.0258,0.0284,0.0288,0.0318,0.032,0.0336,0.0327,0.0302,0.0301,0.0221,0.0252,0.0225,0.0304,0.0128,0.0126,0.0125,0.0124,0.0124,0.0123,0.0296,0.0311,0.0323,0.0367,0.0408,0.0409,0.0483,0.0448,0.0397,0.0425,0.0429,0.0427,0.0326,0.0434,0.0434,0.0435,0.0435,0.0436,0.0436,0.0329,0.0345,0.0389,0.0427,0.0462,0.0528,0.0574,0.0607,0.0602,0.055,0.0549,0.0344,0.0334,0.0342,0.0444,0.0442,0.0441,0.0441,0.044,0.0385,0.0388,0.0454,0.0492,0.0589,0.0688,0.0734,0.0819,0.0823,0.0834,0.0621,0.0614,0.0587,0.0571,0.0583,0.0742,0.0742,0.0742,0.0742,0.0421,0.043,0.0525,0.0602,0.0701,0.077,0.09,0.0861,0.0801,0.0695,0.0696,0.0622,0.0613,0.0581,0.0565,0.0573,0.0729,0.0729,0.0728,0.0467,0.049,0.057,0.0644,0.0753,0.0869,0.094,0.0841,0.0699,0.0718,0.0594,0.076,0.0653,0.0638,0.0582,0.056,0.057,0,0]}],[{"header":{"parameterUnit":"m.s-1","parameterCategory":2,"la1":30.2992,"la2":30.254,"lo1":-89.0895,"lo2":-89.0443,"dy":0.0025,"dx":0.0025,"nx":19,"ny":19,"refTime":"2026-04-12T03:00:00:Z","depth":"4","parameterNumber":2,"parameterNumberName":"U-component_of_CURRENTS"},"data":[0,0,0,0.102,0.1021,0.1075,0.1075,0.115,0.1151,0,0,0,0,0,0,0,0,0,0,0,0.1005,0.1005,0.102,0.1021,0.1075,0.1075,0.115,0.1151,0,0,0,0,0,0,0,0,0,0,0,0.1005,0.1005,0.1005,0.1021,0.1075,0.1075,0.115,0.1109,0,0,0,0,0,0,0,0,0,0,0.1057,0.105,0.1005,0.1005,0.1021,0.1075,0.1076,0.1107,0.1112,0.1125,0,0.1132,0,0.1139,0.1155,0.1155,0,0,0,0.1028,0.1046,0.1048,0.1006,0.1021,0.1075,0.1053,0.111,0.1115,0.1131,0.1133,0.1136,0.114,0.1156,0.1156,0.1201,0.1201,0,0,0.1025,0.1028,0.1045,0.1052,0.1035,0.1051,0.1054,0.1113,0.1126,0.1134,0.1138,0.1141,0.1156,0.1157,0.1201,0.1201,0,0,0,0.1011,0.1026,0.1027,0.1049,0.1056,0.1052,0.1056,0.1123,0.112,0.1139,0.1142,0.1156,0.1157,0.1201,0.1201,0.1276,0,0,0,0.101,0.1017,0.1026,0.103,0.1054,0.1092,0.1065,0.1116,0.1123,0.1142,0.1157,0.1158,0.1201,0.1201,0.1274,0.1296,0,0,0,0.1002,0.1017,0.102,0.103,0.1048,0.1091,0.1092,0.1118,0.1125,0.1156,0.1158,0.1201,0.1201,0.1272,0.1293,0.1343,0,0,0,0.1008,0.1006,0.102,0.1032,0.1047,0.1076,0.1092,0.1133,0.1161,0.1157,0.1201,0.1201,0.1271,0.1291,0.134,0.1142,0,0,0,0.1001,0.1006,0.1012,0.1025,0.1028,0.1069,0.1121,0.117,0.1162,0.1183,0.1185,0.1274,0.1293,0.1342,0.1142,0,0,0,0,0.1007,0.1008,0.1013,0.1027,0.105,0.1087,0.1152,0.1192,0.1237,0.1176,0.1253,0.1261,0.1291,0.1166,0.1201,0.1201,0.1201,0.1201,0.1201,0.0993,0.1003,0.1014,0.1034,0.1061,0.1123,0.1177,0.1233,0.126,0.1291,0.1308,0.1372,0.124,0.1293,0.1294,0.1294,0.1294,0.1295,0.1295,0.0968,0.0971,0.1013,0.1031,0.1076,0.1135,0.1237,0.1282,0.1389,0.1367,0.1392,0.1233,0.1302,0.13,0.1299,0.1298,0.1298,0.1297,0.1297,0.0935,0.094,0.0979,0.1023,0.1085,0.1172,0.1256,0.135,0.1433,0.1469,0.1346,0.142,0.1433,0.1502,0.1502,0.1502,0.1503,0.1503,0.1503,0.0883,0.0916,0.0943,0.1013,0.1071,0.1165,0.1296,0.1362,0.1453,0.1396,0.1504,0.1441,0.1435,0.1443,0.1508,0.1507,0.1507,0.1506,0.1506,0.0819,0.0849,0.0882,0.0935,0.1042,0.1096,0.1248,0.1305,0.1361,0.1351,0.135,0.1356,0.1312,0.1309,0.1311,0.134,0.1338,0.1336,0,0.0778,0.0788,0.0834,0.0884,0.0945,0.1046,0.1066,0.1147,0.1229,0.1188,0.1376,0.1374,0.1377,0.1324,0.1318,0.1317,0,0,0,0.074,0.0766,0.078,0.0832,0.0893,0.095,0.1065,0.1059,0.1204,0.1189,0.1278,0.1293,0.1402,0.1523,0.1471,0.1462,0.1473,0,0]},{"header":{"parameterUnit":"m.s-1","parameterCategory":2,"la1":30.2992,"la2":30.254,"lo1":-89.0895,"lo2":-89.0443,"dy":0.0025,"dx":0.0025,"nx":19,"ny":19,"refTime":"2026-04-12T03:00:00:Z","depth":"4","parameterNumber":3,"parameterNumberName":"V-component_of_CURRENTS"},"data":[0,0,0,-0.0048,-0.0047,-0.0031,-0.0031,0.0039,0.0039,0,0,0,0,0,0,0,0,0,0,0,-0.0054,-0.0054,-0.0048,-0.0047,-0.0031,-0.0031,0.0039,0.0039,0,0,0,0,0,0,0,0,0,0,0,-0.0054,-0.0054,-0.0054,-0.0047,-0.0031,-0.0031,0.0038,0.0014,0,0,0,0,0,0,0,0,0,0,-0.0008,-0.0022,-0.0054,-0.0054,-0.0047,-0.0031,-0.0031,0.0013,0.0016,0.0044,0,0.0044,0,0.0044,0.0045,0.0045,0,0,0,-0.0045,-0.0025,-0.0019,-0.0054,-0.0047,-0.0031,-0.0038,0.0014,0.0018,0.0049,0.0045,0.0047,0.0045,0.0045,0.0046,0.0178,0.0178,0,0,-0.0046,-0.0049,-0.0022,-0.0017,-0.0044,-0.0038,-0.0037,0.0016,0.002,0.0045,0.0049,0.0047,0.0046,0.0047,0.0177,0.0178,0,0,0,-0.005,-0.005,-0.0047,-0.002,-0.002,-0.0038,-0.0036,0.0017,0.0018,0.0049,0.0047,0.0047,0.0048,0.0176,0.0177,0.0143,0,0,0,-0.0051,-0.0052,-0.0047,-0.0048,-0.0021,-0.0008,-0.0036,0.0015,0.002,0.0047,0.0047,0.0048,0.0175,0.0177,0.0142,0.0156,0,0,0,-0.0054,-0.0053,-0.0051,-0.0049,-0.0042,-0.0009,-0.0005,0.0016,0.002,0.0045,0.0049,0.0174,0.0176,0.0141,0.0154,0.0154,0,0,0,-0.0057,-0.0042,-0.0052,-0.0026,-0.0043,0.0005,-0.0005,0.0029,0.0053,0.0047,0.0175,0.0177,0.0141,0.0153,0.0153,0.0142,0,0,0,-0.0036,-0.0039,-0.002,-0.0028,0.0019,0.0002,0.0054,0.0074,0.0096,0.0159,0.0162,0.0142,0.0154,0.0154,0.0259,0,0,0,0,-0.0011,0.0,0.0015,0.0038,0.0063,0.008,0.0097,0.0101,0.014,0.0118,0.0192,0.0203,0.0202,0.0196,0.0187,0.0186,0.0186,0.0186,0.0186,0.0007,0.0028,0.0066,0.0093,0.012,0.0142,0.0153,0.0172,0.0179,0.0195,0.0209,0.0241,0.0238,0.0237,0.0236,0.0236,0.0236,0.0236,0.0236,0.0045,0.0068,0.0097,0.0138,0.016,0.0197,0.0216,0.0206,0.0231,0.0232,0.0232,0.0206,0.0234,0.0234,0.0235,0.0235,0.0235,0.0235,0.0235,0.0055,0.0068,0.0094,0.0149,0.0194,0.0226,0.026,0.0259,0.0237,0.0235,0.024,0.0239,0.0201,0.023,0.023,0.023,0.023,0.023,0.023,0.0045,0.0074,0.0107,0.0164,0.0201,0.0254,0.029,0.0289,0.0268,0.0242,0.0241,0.024,0.024,0.0204,0.0231,0.0231,0.0231,0.0231,0.0231,0.0051,0.0057,0.0107,0.0144,0.0232,0.0271,0.0317,0.0307,0.0296,0.0262,0.0238,0.0237,0.0254,0.0254,0.0217,0.025,0.025,0.025,0,0.0042,0.0052,0.0101,0.0154,0.022,0.0278,0.0294,0.0297,0.0257,0.0247,0.0264,0.0237,0.0236,0.0254,0.0255,0.0213,0,0,0,0.0041,0.0059,0.008,0.0132,0.0206,0.0257,0.0297,0.0284,0.0277,0.0263,0.0249,0.0249,0.0253,0.0234,0.0259,0.0259,0.0202,0,0]}]]